Orbital Elements at Epoch 2459200.5 (2020-Dec-17.0) TDB
Reference: JPL 14 (heliocentric ecliptic J2000)
Element | Value | Uncertainty (1-sigma) | Units |
e | .1952648151828254 | 5.0001e-08 | |
a | 2.387780279625872 | 9.7424e-09 | au |
q | 1.921530804627531 | 1.1852e-07 | au |
i | 1.476198654467919 | 5.6335e-06 | deg |
node | 21.09385869110573 | 0.00015912 | deg |
peri | 354.7805270805025 | 0.00015952 | deg |
M | 48.8892178171212 | 1.1134e-05 | deg |
tp | 2459017.479154744057 (2020-Jun-16.97915474) | 4.1212e-05 | TDB |
period | 1347.689884068164 3.69 | 8.2481e-06 2.258e-08 | d yr |
n | .2671237680535945 | 1.6348e-09 | deg/d |
Q | 2.854029754624213 | 1.1645e-08 | au |
|
| | Orbit Determination Parameters
Additional Information
|